Home   Weather   Ontario   Past weeks
Flag for USA

Past Weather in Ontario, Oregon, USA — Yesterday and Last 2 Weeks

Now
50 °F

Broken clouds.


Feels Like: 50 °F
Forecast: 64 / 39 °F
Wind: No wind

Location: Ontario Municipal Airport

Current Time: Oct 22, 2019 at 12:59:17 pm

Latest Report: Oct 22, 2019 at 11:53 am


Visibility: 10 mi

Pressure: 30.36 "Hg (28.05 "Hg at 656m altitude)

Humidity: 80%

Dew Point: 44 °F

Location of OntarioLocation

Past Weather in Ontario — Graph

°F

Ontario Temperature Yesterday

Maximum temperature yesterday: 60 °F (at 3:53 pm)
Minimum temperature yesterday: 35 °F (at 7:53 am)
Average temperature yesterday: 47 °F

High & Low Weather Summary for the Past Weeks

 TemperatureHumidityPressure
High73 °F (Oct 8, 3:53 pm)86% (Oct 19, 9:53 am)30.54 "Hg (Oct 19, 9:53 am)
Low22 °F (Oct 11, 7:53 am)22% (Oct 12, 4:53 pm)29.64 "Hg (Oct 17, 3:53 am)
Average47 °F56%30.09 "Hg
* Reported Oct 7 10:53 am — Oct 22 10:53 am, Ontario. Weather by CustomWeather, © 2019

Note: Actual official high and low records may vary slightly from our data, if they occured in-between our weather recording intervals... More about our weather records

Advertising

Ontario Weather History for the Previous 24 Hours

Scroll right to see more
 ConditionsComfort  
Time TempWeatherWind HumidityBarometerVisibility
10:53 am
Tue, Oct 22
47 °FLight rain. More clouds than sun.No wind83%30.34 "Hg10 mi
9:53 am47 °FLight rain. More clouds than sun.No wind80%30.35 "Hg10 mi
8:53 am45 °FLight rain. Overcast.No wind82%30.35 "Hg6 mi
7:53 am45 °FOvercast.No wind82%30.34 "Hg10 mi
6:53 am44 °FMostly cloudy.No wind79%30.34 "Hg10 mi
5:53 am43 °FPassing clouds.No wind82%30.35 "Hg10 mi
4:53 am44 °FPassing clouds.3 mph79%30.34 "Hg10 mi
3:53 am44 °FClear.3 mph79%30.34 "Hg10 mi
2:53 am44 °FClear.7 mph79%30.36 "Hg10 mi
1:53 am43 °FPassing clouds.5 mph82%30.37 "Hg10 mi
12:53 am45 °FPassing clouds.No wind80%30.36 "Hg10 mi
11:53 pm
Mon, Oct 21
48 °FClear.No wind74%30.36 "Hg10 mi
10:53 pm52 °FOvercast.No wind64%30.36 "Hg10 mi
9:53 pm52 °FOvercast.No wind66%30.36 "Hg10 mi
8:53 pm53 °FMostly cloudy.No wind61%30.34 "Hg10 mi
7:53 pm55 °FScattered clouds.No wind55%30.34 "Hg9 mi
6:53 pm57 °FOvercast.No wind51%30.33 "Hg10 mi
5:53 pm59 °FPartly sunny.No wind46%30.32 "Hg10 mi
4:53 pm59 °FPassing clouds.5 mph44%30.32 "Hg10 mi
3:53 pm60 °FSunny.3 mph42%30.30 "Hg5 mi
2:53 pm57 °FPassing clouds.No wind49%30.31 "Hg10 mi
1:53 pm54 °FOvercast.No wind55%30.33 "Hg10 mi
12:53 pm51 °FOvercast.No wind56%30.34 "Hg10 mi
Weather by CustomWeather, © 2019

See weather overview